693  
ASUS44 KCRP 271310  
RWRCRP  
 
SOUTH TEXAS REGIONAL WEATHER ROUNDUP  
NATIONAL WEATHER SERVICE CORPUS CHRISTI TX  
700 AM CST SAT FEB 27 2021  
 
 
TXZ229>244-271400-   
..CORPUS CHRISTI AREA OBSERVATIONS
 
 
 
CITY SKY/WX TMP DP RH WIND PRES REMARKS
 
CORPUS CHRISTI CLOUDY 69 68 96 SE14 29.86R FOG  
NAS CORPUS CHR CLOUDY 69 67 93 SE15 29.86R  
ROCKPORT FOG 66 66 100 SE8 29.87R VSB 1  
KINGSVILLE NAS CLOUDY 69 64 84 SE15 29.83S  
ALICE CLOUDY 69 68 96 SE9 29.83R FOG  

 
   
..VICTORIA AREA OBSERVATIONS
 
 
 
CITY SKY/WX TMP DP RH WIND PRES REMARKS
 
PORT LAVACA CLOUDY 71 67 89 SE12 29.89S FOG  
VICTORIA CLOUDY 69 67 93 SE14 29.87S  
BEEVILLE CLOUDY 71 71 100 S14 29.84S  
PLEASANTON CLOUDY 66 64 92 CALM 29.86S  
SAN ANTONIO LGT RAIN 60 59 96 E3 29.86S VSB 1/16  

 
   
..LAREDO AREA OBSERVATIONS
 
 
 
CITY SKY/WX TMP DP RH WIND PRES REMARKS
 
LAREDO CLOUDY 64 58 80 NE3 29.81R  
COTULLA CLOUDY 66 61 84 E8 29.82S  
DEL RIO FOG 61 59 93 CALM 29.83S VSB 1/4  
MCALLEN CLOUDY 71 66 84 SE16 29.82R  
HEBBRONVILLE CLOUDY 69 61 75 S10 29.83R  

 
   
..OTHER TEXAS OBSERVATIONS
 
 
 
CITY SKY/WX TMP DP RH WIND PRES REMARKS
 
BROWNSVILLE CLOUDY 70 67 90 SE13 29.85R FOG  
HOUSTON MOCLDY 68 66 93 E9 29.93R  
COL. STATION CLOUDY 66 64 93 SE9 29.90S FOG  
AUSTIN FOG 58 57 97 N3 29.88S VSB 1/8  
TEMPLE FOG 57 57 100 E5 29.89F VSB 1/2  
WACO CLOUDY 57 54 89 CALM 29.89S  
FORT WORTH DRZL/FOG 53 52 96 E5 29.90F VSB 1/2  
WICHITA FALLS CLOUDY 45 44 97 E5 29.87R FOG  
LUBBOCK MOCLDY 33 17 51 NW5 29.83S  
EL PASO PTCLDY 42 6 22 SE6 29.87S  

 
   
..MARINE OBSERVATIONS
 
 
 
STATION/POSITION TIME SKY/WX TEMP WIND PRES VSBY WAVE SWELL
 
AIR SEA DIR/SP/G HT/PER HT/PER  
(UTC) (F) (DEG/KT/KT) (MB) (MI) (FT/S) (FT/S)  
PORT ARANSAS 1300 63 60 130/ 10/ 11 1011.2R  
MALAQUITE BEACH 1224 62 120/ 12/ 13 N/A  
BUOY 90 E PORT A 1250 71 71 140/ 17/ 23 1012.5S 4/ 5  
BUOY 45 SE BAFFI NOT AVBL  
BUOY 200 E PT IS 1250 72 72 1014.3R 4/ 6 2/ 6  
BUOY 15 E GALVES 1250 61 57 100/ 4/ 6 1013.7R  

 
 
 
CLICK HERE TO GO TO PREVIOUS BULLETINS.

The Nexlab TX Page Main Text Page